[[{"header":{"parameterUnit":"m.s-1","parameterCategory":1,"la1":30.2991,"la2":30.254,"lo1":-89.0895,"lo2":-89.0444,"dy":0.0017,"dx":0.0017,"nx":28,"ny":28,"refTime":"2024-12-21T09:00:00:Z","depth":0,"parameterNumber":2,"parameterNumberName":"U-component_of_WINDS"},"data":[0,0,0,0,0,0,0,0,0,0,0,0,0,0,0,0,0,0,0,0,0,0,0,0,0,0,0,0,0,0,0,0,0,0,0,0,0,0,0,0,0,0,0,0,0,0,0,0,0,0,0,0,0,0,0,0,0,0,-4.0196,-4.0196,0,-4.0239,-4.024,-4.024,-4.0122,-4.0118,-4.0115,-4.0111,-4.0154,-4.0159,-4.0163,0,0,0,0,0,0,0,0,0,0,0,0,0,-4.0009,-4.0013,-4.0196,-4.0196,-4.0197,-4.0239,-4.024,-4.024,-4.0123,-4.0118,-4.0114,-4.011,-4.0153,-4.0158,-4.0164,0,0,0,0,0,0,0,0,0,0,0,0,0,-4.0075,-4.0014,-4.0196,-4.0143,-4.0139,-4.0239,-4.024,-4.024,-4.0124,-4.0118,-4.0113,-4.0108,-4.0151,-4.0158,-4.0164,-4.0316,0,0,-4.0185,-4.0188,0,0,0,0,0,0,0,0,-4.0071,-4.0082,-4.0151,-4.0147,-4.0143,-4.017,-4.0189,-4.0266,-4.0125,-4.013,-4.0111,-4.0105,-4.0164,-4.0169,-4.0189,-4.0318,-4.032,-4.0186,-4.019,-4.0193,-4.0195,0,0,0,0,0,0,0,-4.0067,-4.0079,-4.0213,-4.0152,-4.0147,-4.0117,-4.012,-4.0203,-4.0177,-4.0129,-4.012,-4.0127,-4.016,-4.0183,-4.0189,-4.0321,-4.0186,-4.0192,-4.0196,-4.0199,-4.0574,-4.058,0,0,0,0,0,0,-4.0069,-4.0076,-4.0211,-4.0214,-4.0093,-4.0125,-4.0128,-4.0167,-4.0176,-4.0172,-4.0132,-4.0121,-4.0174,-4.0182,-4.0191,-4.0367,-4.0193,-4.0199,-4.0203,-4.0568,-4.0575,-4.0582,0,0,0,0,0,0,-4.0066,-4.0082,-4.021,-4.0143,-4.0157,-4.0134,-4.0178,-4.017,-4.0193,-4.0178,-4.0172,-4.016,-4.017,-4.0181,-4.0285,-4.0367,-4.0202,-4.0209,-4.0561,-4.0571,-4.0579,-4.0722,0,0,0,0,0,0,-4.0061,-4.0082,-4.014,-4.0145,-4.0161,-4.0305,-4.0183,-4.0175,-4.0205,-4.0192,-4.0203,-4.0199,-4.0167,-4.0276,-4.0292,-4.0373,-4.0214,-4.0554,-4.0565,-4.0576,-4.071,-4.0735,-4.0756,0,0,0,0,0,-4.0055,-4.0179,-4.0144,-4.0161,-4.0233,-4.031,-4.0319,-4.0279,-4.0212,-4.0269,-4.026,-4.0199,-4.0356,-4.0288,-4.0305,-4.0389,-4.0549,-4.0562,-4.0575,-4.07,-4.073,-4.0756,0,0,0,0,0,0,-4.0184,-4.0179,-4.0139,-4.0269,-4.0291,-4.029,-4.0361,-4.0313,-4.0354,-4.034,-4.0288,-4.0292,-4.0405,-4.0408,-4.0332,-4.0536,-4.044,-4.0458,-4.0529,-4.0558,-4.0581,-4.0576,-4.022,0,0,0,0,0,-4.0228,-4.0291,-4.0283,-4.0398,-4.0411,-4.0385,-4.0417,-4.0385,-4.0405,-4.0413,-4.0411,-4.0433,-4.0486,-4.0523,-4.0571,-4.0711,-4.071,-4.0777,-4.08,-4.0819,-4.0834,-4.0905,-4.0934,-4.0625,-4.0625,-4.0625,0,0,-4.0318,-4.0323,-4.0366,-4.0424,-4.0437,-4.0503,-4.0394,-4.0468,-4.0516,-4.0424,-4.0522,-4.0522,-4.0542,-4.0664,-4.0718,-4.067,-4.0919,-4.0836,-4.0851,-4.0855,-4.0922,-4.0951,-4.0977,-4.0634,-4.0633,-4.0631,0,0,-4.0516,-4.0528,-4.0624,-4.0639,-4.066,-4.0642,-4.0665,-4.0672,-4.0668,-4.0765,-4.0697,-4.0753,-4.0848,-4.0864,-4.0885,-4.1089,-4.1034,-4.1107,-4.1226,-4.1296,-4.132,-4.1341,-4.1411,-4.1438,-4.1122,-4.1122,-4.1123,0,-4.0626,-4.0723,-4.0679,-4.0758,-4.0785,-4.0706,-4.0801,-4.0818,-4.0855,-4.0874,-4.082,-4.0936,-4.0944,-4.1067,-4.1117,-4.1138,-4.1161,-4.1104,-4.132,-4.1341,-4.136,-4.1426,-4.1453,-4.1131,-4.113,-4.1129,-4.1128,0,-4.0855,-4.0923,-4.0998,-4.1035,-4.107,-4.1158,-4.1126,-4.1167,-4.1132,-4.1119,-4.1219,-4.1226,-4.1274,-4.1301,-4.1268,-4.142,-4.1389,-4.1329,-4.1232,-4.1399,-4.146,-4.1485,-4.1143,-4.114,-4.1138,-4.1135,0,0,-4.1134,-4.1146,-4.1174,-4.1188,-4.1206,-4.1257,-4.1341,-4.1388,-4.1422,-4.145,-4.1517,-4.1599,-4.1543,-4.1566,-4.1534,-4.1596,-4.1754,-4.1528,-4.1527,-4.1567,-4.1919,-4.1962,-4.1992,-4.1718,-4.1723,-4.1727,-4.1916,0,-4.1327,-4.147,-4.1433,-4.1574,-4.1635,-4.1561,-4.1633,-4.1651,-4.1642,-4.1691,-4.168,-4.1738,-4.1661,-4.1674,-4.1733,-4.1723,-4.1823,-4.1709,-4.1778,-4.1781,-4.1772,-4.2025,-4.2071,-4.2249,-4.194,-4.1944,-4.1947,0,-4.1571,-4.1608,-4.1756,-4.1761,-4.1785,-4.1851,-4.189,-4.194,-4.1958,-4.1946,-4.1973,-4.1928,-4.2008,-4.1913,-4.2022,-4.1945,-4.1971,-4.1971,-4.1976,-4.1979,-4.1872,-4.2031,-4.2305,-4.2331,-4.1985,-4.1982,-4.1979,0,-4.1756,-4.1843,-4.1942,-4.1957,-4.1967,-4.2015,-4.2021,-4.2034,-4.2064,-4.2099,-4.2117,-4.2161,-4.2184,-4.2219,-4.2186,-4.212,-4.2299,-4.2202,-4.229,-4.2291,-4.2328,-4.2326,-4.2607,-4.2351,-4.2351,-4.235,-4.235,0,-4.1974,-4.2066,-4.2025,-4.2085,-4.2186,-4.2143,-4.2244,-4.2241,-4.2254,-4.2311,-4.2251,-4.2306,-4.2261,-4.2312,-4.2287,-4.238,-4.2392,-4.2383,-4.2375,-4.2387,-4.2388,-4.2401,-4.2387,-4.2357,-4.2356,-4.2354,-4.2353,0,-4.2197,-4.2173,-4.2275,-4.2276,-4.2279,-4.2353,-4.2353,-4.2408,-4.2395,-4.2468,-4.2483,-4.2461,-4.2518,-4.249,-4.2549,-4.2532,-4.2651,-4.2627,-4.2644,-4.2637,-4.2726,-4.2717,-4.3023,-4.306,-4.2783,-4.2786,-4.2788,0,-4.2336,-4.2405,-4.2413,-4.2448,-4.2458,-4.2515,-4.2545,-4.2506,-4.2539,-4.2565,-4.2617,-4.2669,-4.2708,-4.2802,-4.279,-4.2835,-4.281,-4.2915,-4.2816,-4.2826,-4.2808,-4.2803,-4.2808,-4.2934,-4.2937,-4.2939,-4.2942,0,-4.2584,-4.2568,-4.2615,-4.2657,-4.2695,-4.2727,-4.2753,-4.2784,-4.2745,-4.2786,-4.2843,-4.2874,-4.2934,-4.2985,-4.3024,-4.3029,-4.2978,-4.2973,-4.2995,-4.3007,-4.3012,-4.3007,-4.2695,-4.2965,-4.2963,-4.2961,-4.296,-4.2959,-4.2766,-4.2824,-4.2838,-4.2891,-4.2907,-4.2933,-4.2984,-4.2977,-4.3024,-4.307,-4.3044,-4.3111,-4.3126,-4.3172,-4.3184,-4.3235,-4.3193,-4.3226,-4.3234,-4.3242,-4.3252,-4.3007,-4.3242,-4.3241,-4.3241,-4.324,-4.324,0,-4.3008,-4.3014,-4.3064,-4.3102,-4.3144,-4.3094,-4.312,-4.3158,-4.3217,-4.3236,-4.3276,-4.3341,-4.339,-4.3383,-4.3428,-4.347,-4.3447,-4.3482,-4.3477,-4.3479,-4.3288,-4.3263,-4.3499,-4.3499,-4.3499,-4.3499,-4.3499,-4.3499,-4.3139,-4.3232,-4.3219,-4.3319,-4.3324,-4.3389,-4.3407,-4.343,-4.3445,-4.352,-4.3561,-4.3556,-4.3564,-4.3609,-4.3651,-4.3648,-4.3666,-4.3709,-4.3697,-4.3518,-4.3492,-4.3468,-4.3444,-4.3714,-4.3714,-4.3882,-4.3883,-4.3885]},{"header":{"parameterUnit":"m.s-1","parameterCategory":1,"la1":30.2991,"la2":30.254,"lo1":-89.0895,"lo2":-89.0444,"dy":0.0017,"dx":0.0017,"nx":28,"ny":28,"refTime":"2024-12-21T09:00:00:Z","depth":0,"parameterNumber":3,"parameterNumberName":"V-component_of_WINDS"},"data":[0,0,0,0,0,0,0,0,0,0,0,0,0,0,0,0,0,0,0,0,0,0,0,0,0,0,0,0,0,0,0,0,0,0,0,0,0,0,0,0,0,0,0,0,0,0,0,0,0,0,0,0,0,0,0,0,0,0,-2.2249,-2.2249,0,-2.2287,-2.2287,-2.2287,-2.2266,-2.2265,-2.2264,-2.2263,-2.2301,-2.2302,-2.2304,0,0,0,0,0,0,0,0,0,0,0,0,0,-2.2156,-2.2158,-2.2249,-2.225,-2.225,-2.2287,-2.2287,-2.2288,-2.2266,-2.2265,-2.2264,-2.2263,-2.23,-2.2302,-2.2305,0,0,0,0,0,0,0,0,0,0,0,0,0,-2.2196,-2.2159,-2.2249,-2.2244,-2.2244,-2.2286,-2.2287,-2.2288,-2.2267,-2.2265,-2.2264,-2.2262,-2.2299,-2.2302,-2.2305,-2.2354,0,0,-2.2314,-2.2315,0,0,0,0,0,0,0,0,-2.2193,-2.2199,-2.2244,-2.2244,-2.2244,-2.227,-2.2268,-2.231,-2.2267,-2.2258,-2.2263,-2.2261,-2.2292,-2.2295,-2.2306,-2.2356,-2.2358,-2.2314,-2.2316,-2.2317,-2.2318,0,0,0,0,0,0,0,-2.2191,-2.2197,-2.2264,-2.2245,-2.2245,-2.2239,-2.2243,-2.2276,-2.2283,-2.2259,-2.2257,-2.2262,-2.2291,-2.2303,-2.2306,-2.2358,-2.2314,-2.2317,-2.2318,-2.232,-2.2449,-2.245,0,0,0,0,0,0,-2.2189,-2.2195,-2.2263,-2.2265,-2.2214,-2.2242,-2.2246,-2.2263,-2.2283,-2.2284,-2.2263,-2.2261,-2.2298,-2.2303,-2.2307,-2.2365,-2.2317,-2.232,-2.2322,-2.2447,-2.2449,-2.2451,0,0,0,0,0,0,-2.2187,-2.2195,-2.2261,-2.223,-2.2238,-2.2245,-2.2265,-2.2265,-2.2276,-2.2286,-2.2287,-2.2274,-2.2297,-2.2303,-2.2342,-2.2366,-2.2321,-2.2324,-2.2445,-2.2448,-2.245,-2.2482,0,0,0,0,0,0,-2.2184,-2.2194,-2.2214,-2.223,-2.2239,-2.2296,-2.2266,-2.2267,-2.2282,-2.2279,-2.2296,-2.2298,-2.2297,-2.2338,-2.2345,-2.2369,-2.2326,-2.2443,-2.2446,-2.2449,-2.2479,-2.2485,-2.2491,0,0,0,0,0,-2.2181,-2.2222,-2.2215,-2.2223,-2.2264,-2.2298,-2.2303,-2.2301,-2.2284,-2.2303,-2.2309,-2.2297,-2.2363,-2.2342,-2.235,-2.2376,-2.2442,-2.2445,-2.2449,-2.2476,-2.2484,-2.249,0,0,0,0,0,0,-2.2208,-2.2224,-2.2217,-2.2264,-2.228,-2.2294,-2.2318,-2.231,-2.2331,-2.2327,-2.2324,-2.2328,-2.2368,-2.2376,-2.2353,-2.2423,-2.2399,-2.2405,-2.2417,-2.2424,-2.243,-2.2427,-2.2329,0,0,0,0,0,-2.2219,-2.2246,-2.2258,-2.2299,-2.2307,-2.2311,-2.2326,-2.2323,-2.2339,-2.2346,-2.2355,-2.237,-2.2394,-2.241,-2.2432,-2.248,-2.2482,-2.2501,-2.2507,-2.2512,-2.2516,-2.254,-2.2548,-2.2463,-2.2463,-2.2463,0,0,-2.2243,-2.2255,-2.2272,-2.2304,-2.2316,-2.2343,-2.2317,-2.2347,-2.2366,-2.235,-2.2387,-2.2394,-2.2411,-2.2454,-2.2473,-2.2462,-2.254,-2.2516,-2.252,-2.2522,-2.2545,-2.2553,-2.256,-2.2466,-2.2465,-2.2465,0,0,-2.23,-2.2313,-2.2347,-2.2359,-2.2377,-2.238,-2.2388,-2.2403,-2.2407,-2.2444,-2.2432,-2.2455,-2.2496,-2.2508,-2.252,-2.2579,-2.2569,-2.2587,-2.2618,-2.2641,-2.2648,-2.2653,-2.2673,-2.268,-2.2592,-2.2592,-2.2592,0,-2.2328,-2.2368,-2.2366,-2.2396,-2.2409,-2.2396,-2.2429,-2.2441,-2.2466,-2.2475,-2.2461,-2.2512,-2.2523,-2.2567,-2.2582,-2.2592,-2.26,-2.2585,-2.2647,-2.2653,-2.2658,-2.2677,-2.2684,-2.2594,-2.2593,-2.2593,-2.2593,0,-2.24,-2.2428,-2.2453,-2.2477,-2.2493,-2.2525,-2.2526,-2.2543,-2.2538,-2.2542,-2.2579,-2.2591,-2.2615,-2.2625,-2.2621,-2.2669,-2.2661,-2.2647,-2.2623,-2.2668,-2.2686,-2.2693,-2.2596,-2.2596,-2.2595,-2.2595,0,0,-2.2476,-2.2496,-2.2506,-2.2515,-2.2533,-2.2554,-2.2585,-2.2608,-2.2622,-2.2639,-2.2663,-2.2698,-2.2685,-2.2698,-2.2695,-2.2716,-2.276,-2.2699,-2.27,-2.2709,-2.2811,-2.282,-2.2829,-2.2753,-2.2754,-2.2756,-2.2809,0,-2.2533,-2.2586,-2.2584,-2.2634,-2.2658,-2.2645,-2.2671,-2.2684,-2.2688,-2.2709,-2.2713,-2.2737,-2.2719,-2.2726,-2.2746,-2.275,-2.278,-2.2747,-2.2775,-2.2776,-2.277,-2.2838,-2.2849,-2.2899,-2.2816,-2.2817,-2.2818,0,-2.2607,-2.2625,-2.2677,-2.269,-2.27,-2.2724,-2.2744,-2.2765,-2.2779,-2.278,-2.2794,-2.2787,-2.2816,-2.2792,-2.2831,-2.2808,-2.2819,-2.2823,-2.2825,-2.2827,-2.2799,-2.2841,-2.2915,-2.2922,-2.2829,-2.2828,-2.2828,0,-2.2655,-2.2693,-2.2729,-2.2738,-2.2754,-2.277,-2.2778,-2.2791,-2.2804,-2.2822,-2.283,-2.2851,-2.2862,-2.2878,-2.2876,-2.2858,-2.2916,-2.2891,-2.2916,-2.2916,-2.2929,-2.2928,-2.3004,-2.2938,-2.2937,-2.2937,-2.2937,0,-2.2718,-2.275,-2.275,-2.2772,-2.2807,-2.2803,-2.2838,-2.2843,-2.2854,-2.2876,-2.2866,-2.2886,-2.2884,-2.2904,-2.2903,-2.2935,-2.294,-2.2941,-2.294,-2.2942,-2.2941,-2.2948,-2.2944,-2.2939,-2.2939,-2.2938,-2.2938,0,-2.2778,-2.2779,-2.2817,-2.2829,-2.2832,-2.2857,-2.2867,-2.2887,-2.2889,-2.2917,-2.2923,-2.2926,-2.295,-2.295,-2.2976,-2.2975,-2.3014,-2.301,-2.3009,-2.3008,-2.3033,-2.303,-2.3116,-2.3126,-2.3054,-2.3055,-2.3055,0,-2.2818,-2.2842,-2.2856,-2.287,-2.2878,-2.2901,-2.2914,-2.2911,-2.2925,-2.2942,-2.296,-2.2982,-2.3,-2.3037,-2.3041,-2.3061,-2.3056,-2.3085,-2.3059,-2.3059,-2.3055,-2.3053,-2.3055,-2.309,-2.3091,-2.3091,-2.3092,0,-2.2888,-2.2887,-2.2907,-2.2927,-2.2943,-2.2959,-2.2973,-2.2985,-2.2983,-2.3,-2.3023,-2.3036,-2.3063,-2.3085,-2.3103,-2.311,-2.31,-2.31,-2.3107,-2.3108,-2.3106,-2.3106,-2.3022,-2.3098,-2.3097,-2.3097,-2.3097,-2.3096,-2.2938,-2.2958,-2.297,-2.2992,-2.3003,-2.3016,-2.3035,-2.3039,-2.3059,-2.308,-2.3077,-2.3103,-2.3114,-2.3138,-2.3147,-2.3166,-2.3156,-2.3166,-2.3168,-2.317,-2.3172,-2.3103,-2.317,-2.3169,-2.3169,-2.3169,-2.3169,0,-2.3006,-2.3013,-2.3033,-2.3053,-2.307,-2.306,-2.3075,-2.3089,-2.3112,-2.3124,-2.3141,-2.3167,-2.3188,-2.3193,-2.3213,-2.3227,-2.3223,-2.3232,-2.323,-2.3232,-2.3181,-2.3173,-2.3235,-2.3235,-2.3235,-2.3235,-2.3235,-2.3235,-2.3043,-2.3076,-2.3077,-2.3114,-2.312,-2.3146,-2.3155,-2.3166,-2.3176,-2.3205,-2.3222,-2.3225,-2.3234,-2.3254,-2.3272,-2.3273,-2.328,-2.3291,-2.329,-2.3242,-2.3236,-2.3229,-2.3221,-2.3293,-2.3293,-2.3339,-2.3339,-2.3339]}]]